Weather History for KPVW - January, 2014

Change the Weather History Date:

Thursday, January 30, 2014

  Actual Average Record
Temperature  
Mean Temperature 52 °F -  
Max Temperature 71 °F 52 °F 77 °F (1911)
Min Temperature 32 °F 25 °F 2 °F (1949)
Degree Days  
Heating Degree Days 14    
Growing Degree Days 2 (Base 50)    
Moisture  
Dew Point 18 °F    
Average Humidity 31    
Maximum Humidity 49    
Minimum Humidity 17    
Precipitation  
Precipitation 0.00 in - - ()
Sea Level Pressure  
Sea Level Pressure 29.71 in    
Wind  
Wind Speed 15 mph (SW)    
Max Wind Speed 26 mph    
Max Gust Speed 33 mph    
Visibility 10 miles    
Events      
Averages and records for this station are not official NWS values.
T = Trace of Precipitation, MM = Missing Value Source: NWS Daily Summary

Daily Weather History Graph

Daily Weather History Graph

Search for Another Location

Airport or City:

Trip Planner

Search our weather history database for the weather conditions in past years. The results will help you decide how hot, cold, wet, or windy it might be!

Date:

Astronomy

Jan. 30, 2014 Rise Set
Actual Time 7:45 AM CST 6:15 PM CST
Civil Twilight 7:19 AM CST 6:41 PM CST
Nautical Twilight 6:49 AM CST 7:11 PM CST
Astronomical Twilight 6:19 AM CST 7:41 PM CST
Moon 7:14 AM CST (1/30) 6:26 PM CST (1/30)
Length of Visible Light 11h 22m
Length of Day
10h 29m
Waning Crescent, 0% of the Moon is Illuminated
Jan 30
Waning Crescent
Jan 30
New
Feb 6
First Quarter
Feb 14
Full
Feb 22
Last Quarter

Hourly Weather History & Observations

Time (CST) Temp. Windchill Dew Point Humidity Pressure Visibility Wind Dir Wind Speed Gust Speed Precip Events Conditions
12:15 AM 34.7 °F 23.7 °F 7.7 °F 32% 29.83 in 10.0 mi SSW 19.6 mph 23.0 mph N/A   Clear
12:35 AM 34.7 °F 24.3 °F 8.1 °F 33% 29.82 in 10.0 mi SSW 17.3 mph - N/A   Clear
12:55 AM 34.7 °F 24.3 °F 8.4 °F 33% 29.80 in 10.0 mi SW 17.3 mph 21.9 mph N/A   Clear
1:15 AM 32.2 °F 21.4 °F 6.8 °F 34% 29.79 in 10.0 mi SW 16.1 mph 20.7 mph N/A   Clear
1:35 AM 32.2 °F 21.4 °F 7.2 °F 35% 29.78 in 10.0 mi SW 16.1 mph 20.7 mph N/A   Clear
1:55 AM 32.2 °F 21.4 °F 6.8 °F 34% 29.78 in 10.0 mi SW 16.1 mph - N/A   Clear
2:15 AM 32.2 °F 21.4 °F 7.3 °F 35% 29.77 in 10.0 mi SW 16.1 mph - N/A   Clear
2:35 AM 32.2 °F 21.4 °F 7.5 °F 36% 29.76 in 10.0 mi SSW 16.1 mph - N/A   Clear
2:55 AM 32.2 °F 21.4 °F 7.5 °F 36% 29.75 in 10.0 mi SSW 16.1 mph - N/A   Clear
3:15 AM 32.2 °F 21.1 °F 7.7 °F 36% 29.74 in 10.0 mi SW 17.3 mph 20.7 mph N/A   Clear
3:35 AM 32.2 °F 21.1 °F 7.7 °F 36% 29.73 in 10.0 mi SW 17.3 mph 24.2 mph N/A   Clear
3:55 AM 32.2 °F 21.1 °F 7.7 °F 36% 29.72 in 10.0 mi SW 17.3 mph 23.0 mph N/A   Clear
4:15 AM 32.2 °F 20.4 °F 7.7 °F 36% 29.71 in 10.0 mi SW 19.6 mph 25.3 mph N/A   Clear
4:35 AM 32.2 °F 21.1 °F 7.5 °F 36% 29.69 in 10.0 mi SW 17.3 mph 25.3 mph N/A   Clear
4:55 AM 32.2 °F 20.7 °F 7.7 °F 36% 29.69 in 10.0 mi SW 18.4 mph 21.9 mph N/A   Clear
5:15 AM 34.7 °F 24.7 °F 9.5 °F 35% 29.67 in 10.0 mi SSW 16.1 mph - N/A   Clear
5:35 AM 34.7 °F 24.7 °F 9.9 °F 36% 29.68 in 10.0 mi SW 16.1 mph - N/A   Clear
5:55 AM 34.7 °F 24.3 °F 9.7 °F 35% 29.67 in 10.0 mi SW 17.3 mph 20.7 mph N/A   Clear
6:15 AM 34.7 °F 24.7 °F 10.0 °F 36% 29.65 in 10.0 mi SSW 16.1 mph - N/A   Clear
6:35 AM 34.7 °F 25.9 °F 9.3 °F 35% 29.66 in 10.0 mi SW 12.7 mph - N/A   Clear
6:55 AM 37.0 °F 28.9 °F 10.4 °F 33% 29.66 in 10.0 mi SW 12.7 mph 17.3 mph N/A   Clear
7:15 AM 35.1 °F 27.4 °F 9.3 °F 34% 29.68 in 10.0 mi SW 10.4 mph - N/A   Clear
7:35 AM 34.7 °F 28.1 °F 9.5 °F 35% 29.67 in 10.0 mi SW 8.1 mph - N/A   Clear
7:55 AM 34.7 °F 28.1 °F 10.0 °F 36% 29.67 in 10.0 mi SW 8.1 mph - N/A   Clear
8:15 AM 37.4 °F 32.8 °F 11.3 °F 34% 29.68 in 10.0 mi SSW 5.8 mph - N/A   Clear
8:35 AM 37.4 °F 32.1 °F 11.3 °F 34% 29.68 in 10.0 mi SW 6.9 mph - N/A   Clear
8:55 AM 47.5 °F - 17.4 °F 30% 29.68 in 10.0 mi West 13.8 mph - N/A   Clear
9:15 AM 53.1 °F - 18.3 °F 26% 29.68 in 10.0 mi West 15.0 mph - N/A   Clear
9:35 AM 54.9 °F - 18.0 °F 24% 29.69 in 10.0 mi West 13.8 mph - N/A   Clear
9:55 AM 57.2 °F - 18.5 °F 22% 29.70 in 10.0 mi West 10.4 mph - N/A   Clear
10:15 AM 59.5 °F - 19.4 °F 21% 29.69 in 7.0 mi West 23.0 mph 29.9 mph N/A   Clear
10:35 AM 59.9 °F - 18.3 °F 20% 29.70 in 10.0 mi West 25.3 mph 33.4 mph N/A   Clear
10:55 AM 60.3 °F - 17.6 °F 19% 29.71 in 10.0 mi West 24.2 mph 32.2 mph N/A   Clear
11:15 AM 61.2 °F - 17.8 °F 19% 29.72 in 10.0 mi West 26.5 mph 32.2 mph N/A   Clear
11:35 AM 63.1 °F - 19.6 °F 19% 29.72 in 10.0 mi West 21.9 mph 31.1 mph N/A   Clear
11:55 AM 67.5 °F - 22.5 °F 18% 29.72 in 10.0 mi West 23.0 mph 28.8 mph N/A   Clear
12:15 PM 69.6 °F - 23.7 °F 18% 29.72 in 10.0 mi West 21.9 mph 29.9 mph N/A   Clear
12:35 PM 70.0 °F - 23.9 °F 18% 29.72 in 10.0 mi West 25.3 mph 28.8 mph N/A   Clear
12:55 PM 70.0 °F - 23.9 °F 18% 29.72 in 10.0 mi West 21.9 mph - N/A   Clear
1:15 PM 70.0 °F - 23.4 °F 17% 29.70 in 10.0 mi West 20.7 mph 28.8 mph N/A   Clear
1:35 PM 70.0 °F - 23.9 °F 18% 29.70 in 10.0 mi West 21.9 mph 31.1 mph N/A   Clear
1:55 PM 70.0 °F - 23.9 °F 18% 29.69 in 10.0 mi West 19.6 mph - N/A   Clear
2:15 PM 70.0 °F - 23.5 °F 17% 29.68 in 10.0 mi West 19.6 mph 25.3 mph N/A   Clear
2:35 PM 70.0 °F - 23.7 °F 18% 29.68 in 10.0 mi WNW 16.1 mph 23.0 mph N/A   Clear
2:55 PM 71.1 °F - 24.8 °F 18% 29.68 in 10.0 mi West 13.8 mph 18.4 mph N/A   Clear
3:15 PM 71.2 °F - 24.6 °F 17% 29.69 in 10.0 mi WNW 12.7 mph 20.7 mph N/A   Clear
3:35 PM 70.0 °F - 23.9 °F 18% 29.70 in 10.0 mi WNW 15.0 mph - N/A   Clear
3:55 PM 70.0 °F - 24.8 °F 18% 29.70 in 10.0 mi WNW 11.5 mph - N/A   Clear
4:15 PM 70.0 °F - 25.5 °F 19% 29.70 in 10.0 mi WNW 10.4 mph - N/A   Clear
4:35 PM 70.0 °F - 26.2 °F 19% 29.70 in 10.0 mi WNW 9.2 mph - N/A   Clear
4:55 PM 70.0 °F - 26.8 °F 20% 29.70 in 10.0 mi ENE 11.5 mph - N/A   Clear
5:15 PM 62.8 °F - 25.5 °F 24% 29.70 in 10.0 mi ENE 12.7 mph - N/A   Clear
5:35 PM 61.0 °F - 25.7 °F 26% 29.70 in 10.0 mi East 12.7 mph 16.1 mph N/A   Clear
5:55 PM 57.6 °F - 25.3 °F 29% 29.70 in 10.0 mi East 9.2 mph - N/A   Clear
6:15 PM 56.8 °F - 26.4 °F 31% 29.70 in 10.0 mi East 10.4 mph - N/A   Clear
6:35 PM 54.9 °F - 26.4 °F 33% 29.71 in 10.0 mi East 6.9 mph - N/A   Clear
6:55 PM 52.3 °F - 25.7 °F 36% 29.72 in 10.0 mi East 6.9 mph - N/A   Clear
7:15 PM 52.3 °F - 24.3 °F 34% 29.72 in 10.0 mi ESE 8.1 mph - N/A   Clear
7:35 PM 51.3 °F - 23.2 °F 33% 29.72 in 10.0 mi ESE 8.1 mph - N/A   Clear
7:55 PM 50.0 °F - 22.8 °F 34% 29.72 in 10.0 mi ESE 9.2 mph - N/A   Clear
8:15 PM 50.0 °F - 23.9 °F 36% 29.73 in 10.0 mi ESE 4.6 mph - N/A   Clear
8:35 PM 49.3 °F - 24.8 °F 38% 29.73 in 10.0 mi ESE 3.5 mph - N/A   Clear
8:55 PM 47.3 °F - 23.5 °F 39% 29.72 in 10.0 mi ESE 4.6 mph - N/A   Clear
9:15 PM 43.3 °F 41.7 °F 21.9 °F 43% 29.73 in 10.0 mi ESE 3.5 mph - N/A   Clear
9:35 PM 43.9 °F 40.5 °F 21.9 °F 42% 29.72 in 10.0 mi ESE 5.8 mph - N/A   Clear
9:55 PM 42.6 °F 39.9 °F 21.4 °F 43% 29.72 in 10.0 mi SE 4.6 mph - N/A   Clear
10:15 PM 42.8 °F 39.3 °F 21.9 °F 44% 29.73 in 10.0 mi ESE 5.8 mph - N/A   Clear
10:35 PM 42.3 °F 37.3 °F 22.1 °F 45% 29.72 in 10.0 mi ESE 8.1 mph - N/A   Clear
10:55 PM 41.5 °F 39.6 °F 22.1 °F 46% 29.73 in 10.0 mi ESE 3.5 mph - N/A   Clear
11:15 PM 40.3 °F - 22.1 °F 48% 29.73 in 10.0 mi Calm Calm - N/A   Clear
11:35 PM 40.8 °F 36.9 °F 22.3 °F 48% 29.72 in 10.0 mi ESE 5.8 mph - N/A   Clear
11:55 PM 39.7 °F - 21.7 °F 49% 29.72 in 10.0 mi Calm Calm - N/A   Clear